Temp
12 11 11 11 10 10 9 8 6 6 6 5 4 4 4 3 3 3 3 2 2 2
11 11 10 10 9 9 7 6 6 6 5 4 4 4 4 3 3 3 2 2 1 1
10 9 9 9 9 8 7 6 5 4 3 4 4 4 3 3 3 2 2 1 1 0
10 9 9 9 8 6 6 6 5 4 4 4 4 3 3 3 2 2 1 0 -1 -1
9 8 7 7 6 6 6 5 4 3 3 3 3 3 3 2 1 1 -0 -1 -2 -2
8 8 7 7 7 6 6 5 4 3 2 3 3 3 2 1 1 -0 -1 -2 -3 -3
7 6 6 5 5 5 4 3 3 3 3 2 2 2 1 0 -1 -2 -2 -3 -4 -4
6 5 4 4 4 3 2 2 2 2 2 2 2 1 0 -1 -2 -3 -3 -4 -4 -5
5 4 4 4 3 2 2 1 2 1 2 1 -0 -1 -2 -3 -3 -4 -5 -5 -6 -6
4 3 3 3 2 1 0 0 1 1 0 -1 -1 -2 -3 -4 -5 -5 -6 -7 -7 -7
3 3 2 2 1 1 1 0 0 -0 -1 -2 -3 -4 -5 -5 -6 -7 -7 -8 -8 -8
3 2 2 1 1 1 1 0 -0 -1 -2 -3 -4 -5 -6 -6 -7 -8 -8 -8 -8 -8
2 1 1 1 1 1 1 -0 -2 -2 -3 -4 -5 -6 -7 -7 -8 -8 -9 -8 -8 -8
1 1 1 1 1 1 -0 -1 -2 -3 -4 -5 -6 -6 -7 -7 -8 -8 -8 -9 -9 -9
Height
847 846 844 842 840 838 836 836 836 836 834 834 834 833 829 827 826 825 822 820 819 815
843 841 840 838 836 834 833 833 832 831 832 830 829 828 827 824 822 821 819 817 816 813
843 841 840 837 834 832 832 832 831 829 828 826 825 823 822 821 818 818 815 814 812 810
842 840 837 834 832 832 831 830 828 826 826 824 822 820 818 817 814 812 813 811 808 806
840 837 834 832 831 830 827 825 823 821 821 821 820 817 815 813 811 809 810 809 805 802
836 833 831 830 829 827 823 821 819 818 817 818 817 815 813 810 808 808 807 804 801 798
834 833 832 829 826 823 820 819 817 815 813 813 814 813 810 809 807 806 803 800 797 794
833 831 828 825 822 819 817 815 813 811 812 811 811 810 808 807 805 801 798 795 792 789
831 828 825 821 817 815 813 811 810 810 810 809 809 808 807 805 801 798 795 791 787 784
829 826 822 818 814 812 810 809 809 808 808 808 807 806 804 801 799 795 792 788 784 779
826 822 819 815 812 810 808 808 807 806 807 807 805 804 802 799 796 792 788 784 780 776
822 819 816 813 811 808 807 806 806 806 806 805 803 802 800 796 793 789 785 781 777 773
819 816 813 810 808 807 805 804 805 805 804 803 802 800 797 794 790 786 782 778 774 770
816 813 810 807 805 804 804 804 804 804 803 802 800 798 795 792 788 784 780 777 772 768
Wind_Speed
6 7 10 13 15 17 16 13 6 8 9 9 9 10 8 9 10 11 11 13 14 14
8 11 13 14 17 17 14 10 8 6 6 10 9 10 9 8 10 10 11 10 8 9
12 13 16 19 18 17 12 10 8 7 18 15 12 8 8 8 9 13 10 9 10 14
14 17 19 18 16 11 11 13 13 14 19 13 12 10 8 11 13 11 11 12 13 17
13 17 17 14 12 14 19 17 12 11 13 19 13 10 11 12 10 11 13 14 17 21
16 16 14 15 18 21 22 18 18 18 18 14 15 13 14 12 11 11 14 19 21 20
12 14 15 15 17 21 20 19 20 17 13 14 12 19 12 11 12 15 21 21 20 20
10 13 15 19 20 21 18 17 15 10 9 12 17 8 10 12 18 21 22 22 23 21
11 15 17 18 17 16 15 11 7 8 9 9 5 8 11 16 17 17 21 24 23 22
13 16 18 17 16 13 14 5 4 7 3 3 7 9 12 14 17 19 19 20 23 23
14 18 19 17 15 11 2 8 10 2 2 5 8 10 13 14 16 19 22 22 20 22
17 17 18 16 13 10 9 10 4 2 3 7 10 12 13 14 18 21 21 19 22 19
13 16 16 14 11 10 9 6 4 1 6 7 9 12 12 15 17 19 18 22 21 18
12 15 14 11 9 7 5 5 1 5 5 5 8 12 12 15 16 18 19 19 19 20
Wind_Direction
328 311 299 296 291 290 279 266 268 309 311 310 311 310 307 308 315 315 310 311 312 318
294 297 284 277 276 272 257 244 256 295 293 302 285 287 285 295 303 303 307 301 304 318
293 295 290 283 275 270 253 261 259 286 296 274 269 265 273 282 304 313 297 291 300 313
337 335 325 304 275 268 279 275 273 308 287 265 259 259 267 297 316 302 287 295 309 311
348 344 333 306 299 289 287 268 253 284 292 273 263 275 293 297 285 293 294 301 312 310
354 355 352 336 324 309 295 262 265 299 299 281 287 292 291 285 291 287 300 311 311 306
358 350 346 341 321 304 284 286 297 298 289 284 306 298 279 292 297 307 312 311 309 303
338 340 338 332 318 305 293 300 303 305 313 331 305 283 300 309 313 315 312 309 309 307
325 335 336 326 311 305 290 298 277 302 305 287 290 316 316 314 315 313 310 311 312 312
322 326 330 323 314 310 303 298 301 294 251 327 335 325 323 323 318 318 318 319 319 317
318 322 322 321 322 323 275 312 308 197 305 335 351 341 338 326 327 325 326 325 324 314
318 316 317 315 317 324 302 302 208 212 338 349 346 343 346 335 331 334 334 333 327 323
310 314 315 311 304 305 306 188 173 36 348 341 341 347 350 345 340 339 335 334 335 332
309 313 312 309 291 281 187 171 171 340 335 328 346 352 352 353 347 341 333 332 331 337